| time (UTC) | temp F | wind direction | speed knots | gust knots | rain 1hr in | rain 24hr in | rain mn in | humidity % | barometer mb |
| 20260510072737 | 56 | 254 | 0.0 | 0.0 | 0.00 | 0.00 | 0.00 | 87 | 1010.9 |
| 20260510072234 | 57 | 257 | 0.0 | 0.0 | 0.00 | 0.00 | 0.00 | 87 | 1010.8 |
| 20260510071731 | 57 | 256 | 0.0 | 0.0 | 0.00 | 0.00 | 0.00 | 87 | 1010.7 |
| 20260510071227 | 57 | 256 | 0.0 | 0.0 | 0.00 | 0.00 | 0.00 | 87 | 1010.5 |
| 20260510070726 | 57 | 255 | 0.0 | 0.0 | 0.00 | 0.00 | 0.00 | 86 | 1010.6 |
| 20260510070223 | 57 | 258 | 0.0 | 0.9 | 0.00 | 0.00 | 0.00 | 86 | 1010.5 |
| 20260510065717 | 57 | 258 | 0.0 | 0.0 | 0.00 | 0.00 | 0.00 | 86 | 1010.5 |
| 20260510065214 | 58 | 256 | 0.0 | 0.0 | 0.00 | 0.00 | 0.00 | 86 | 1010.5 |
| 20260510064710 | 58 | 253 | 0.0 | 0.0 | 0.00 | 0.00 | 0.00 | 85 | 1010.6 |
| 20260510064209 | 58 | 253 | 0.0 | 0.0 | 0.00 | 0.00 | 0.00 | 86 | 1010.5 |
| 20260510063705 | 58 | 249 | 0.0 | 0.0 | 0.00 | 0.00 | 0.00 | 86 | 1010.6 |
| 20260510063201 | 58 | 250 | 0.0 | 0.0 | 0.00 | 0.00 | 0.00 | 85 | 1010.2 |
| 20260510062657 | 58 | 257 | 0.0 | 0.0 | 0.00 | 0.00 | 0.00 | 85 | 1010.4 |
| 20260510062153 | 58 | 261 | 0.0 | 0.9 | 0.00 | 0.00 | 0.00 | 85 | 1010.3 |
| 20260510061649 | 58 | 252 | 0.0 | 0.0 | 0.00 | 0.00 | 0.00 | 85 | 1010.5 |
| 20260510061147 | 59 | 270 | 0.0 | 0.9 | 0.00 | 0.00 | 0.00 | 85 | 1010.5 |
| 20260510060643 | 59 | 264 | 0.0 | 0.0 | 0.00 | 0.00 | 0.00 | 84 | 1010.6 |
| 20260510060139 | 59 | 262 | 0.0 | 0.9 | 0.00 | 0.00 | 0.00 | 84 | 1010.6 |
| 20260510055636 | 59 | 280 | 0.0 | 0.9 | 0.00 | 0.00 | 0.00 | 84 | 1010.4 |
| 20260510055134 | 59 | 266 | 0.0 | 0.0 | 0.00 | 0.00 | 0.00 | 84 | 1010.6 |
| 20260510054629 | 59 | 15 | 1.7 | 2.6 | 0.00 | 0.00 | 0.00 | 84 | 1010.5 |
| 20260510054125 | 59 | 280 | 0.0 | 0.0 | 0.00 | 0.00 | 0.00 | 84 | 1010.5 |
| 20260510053624 | 59 | 297 | 0.0 | 0.9 | 0.00 | 0.00 | 0.00 | 84 | 1010.6 |
| 20260510053121 | 59 | 258 | 0.0 | 0.0 | 0.00 | 0.00 | 0.00 | 83 | 1010.6 |
| 20260510052617 | 59 | 259 | 0.0 | 0.0 | 0.00 | 0.00 | 0.00 | 83 | 1010.6 |
| 20260510052114 | 60 | 287 | 0.0 | 0.9 | 0.00 | 0.00 | 0.00 | 82 | 1010.5 |
| 20260510051609 | 60 | 271 | 0.0 | 0.0 | 0.00 | 0.00 | 0.00 | 82 | 1010.4 |
| 20260510051106 | 60 | 255 | 0.0 | 0.0 | 0.00 | 0.00 | 0.00 | 81 | 1010.7 |
| 20260510050603 | 60 | 254 | 0.0 | 0.0 | 0.00 | 0.00 | 0.00 | 81 | 1010.5 |
| 20260510050100 | 61 | 287 | 0.0 | 0.9 | 0.00 | 0.00 | 0.00 | 80 | 1010.4 |
| 20260510045558 | 61 | 243 | 0.0 | 0.0 | 0.00 | 0.00 | 0.00 | 80 | 1010.5 |
| 20260510045053 | 61 | 231 | 0.9 | 0.9 | 0.00 | 0.00 | 0.00 | 80 | 1010.4 |
| 20260510044550 | 61 | 256 | 0.0 | 0.9 | 0.00 | 0.00 | 0.00 | 80 | 1010.4 |
| 20260510044048 | 61 | 260 | 0.0 | 0.0 | 0.00 | 0.00 | 0.00 | 80 | 1010.6 |
| 20260510043543 | 61 | 261 | 0.0 | 0.0 | 0.00 | 0.00 | 0.00 | 79 | 1010.5 |
| 20260510043039 | 61 | 283 | 0.0 | 0.0 | 0.00 | 0.00 | 0.00 | 79 | 1010.7 |
| 20260510042538 | 61 | 248 | 0.0 | 0.0 | 0.00 | 0.00 | 0.00 | 80 | 1010.7 |
| 20260510042034 | 61 | 269 | 0.0 | 0.9 | 0.00 | 0.00 | 0.00 | 79 | 1010.5 |
| 20260510041531 | 61 | 254 | 0.0 | 0.0 | 0.00 | 0.00 | 0.00 | 78 | 1010.4 |
| 20260510041029 | 61 | 254 | 0.0 | 0.0 | 0.00 | 0.00 | 0.00 | 78 | 1010.6 |
| 20260510040525 | 62 | 250 | 0.0 | 0.9 | 0.00 | 0.00 | 0.00 | 78 | 1010.6 |
| 20260510040021 | 62 | 282 | 0.9 | 0.9 | 0.00 | 0.00 | 0.00 | 77 | 1010.3 |
| 20260510035518 | 62 | 260 | 0.0 | 0.0 | 0.00 | 0.00 | 0.00 | 77 | 1010.2 |
| 20260510035017 | 62 | 243 | 0.0 | 0.0 | 0.00 | 0.00 | 0.00 | 77 | 1010.3 |
| 20260510034516 | 62 | 283 | 0.0 | 0.0 | 0.00 | 0.00 | 0.00 | 76 | 1010.5 |
| 20260510034012 | 62 | 266 | 0.0 | 0.0 | 0.00 | 0.00 | 0.00 | 76 | 1010.3 |
| 20260510033508 | 62 | 273 | 0.9 | 0.9 | 0.00 | 0.00 | 0.00 | 75 | 1010.6 |
| 20260510033006 | 63 | 281 | 0.0 | 0.9 | 0.00 | 0.00 | 0.00 | 75 | 1010.4 |
| 20260510032503 | 63 | 264 | 0.9 | 0.9 | 0.00 | 0.00 | 0.00 | 74 | 1010.4 |
| 20260510032003 | 63 | 45 | 1.7 | 1.7 | 0.00 | 0.00 | 0.00 | 73 | 1010.3 |
| 20260510031458 | 63 | 294 | 0.9 | 0.9 | 0.00 | 0.00 | 0.00 | 73 | 1010.5 |
| 20260510030954 | 63 | 292 | 0.9 | 0.9 | 0.00 | 0.00 | 0.00 | 73 | 1010.4 |
| 20260510030450 | 64 | 257 | 0.0 | 0.0 | 0.00 | 0.00 | 0.00 | 72 | 1010.3 |
| 20260510025947 | 64 | 254 | 0.0 | 0.0 | 0.00 | 0.00 | 0.00 | 72 | 1010.3 |
| 20260510025444 | 65 | 288 | 0.9 | 1.7 | 0.00 | 0.00 | 0.00 | 71 | 1010.1 |
| 20260510024942 | 65 | 324 | 1.7 | 1.7 | 0.00 | 0.00 | 0.00 | 70 | 1010.0 |
| 20260510024438 | 66 | 20 | 0.9 | 1.7 | 0.00 | 0.00 | 0.00 | 70 | 1010.1 |
| 20260510023934 | 66 | 345 | 0.9 | 1.7 | 0.00 | 0.00 | 0.00 | 69 | 1010.2 |
| 20260510023431 | 66 | 260 | 0.0 | 0.0 | 0.00 | 0.00 | 0.00 | 69 | 1010.1 |
| 20260510022928 | 66 | 36 | 1.7 | 1.7 | 0.00 | 0.00 | 0.00 | 68 | 1010.1 |
| 20260510022427 | 66 | 294 | 0.9 | 0.9 | 0.00 | 0.00 | 0.00 | 68 | 1010.1 |
| 20260510021926 | 67 | 263 | 0.9 | 0.9 | 0.00 | 0.00 | 0.00 | 68 | 1010.0 |
| 20260510021424 | 67 | 130 | 0.9 | 0.9 | 0.00 | 0.00 | 0.00 | 68 | 1009.9 |
| 20260510020921 | 67 | 261 | 0.9 | 0.9 | 0.00 | 0.00 | 0.00 | 68 | 1009.9 |
| 20260510020421 | 66 | 279 | 0.0 | 0.0 | 0.00 | 0.00 | 0.00 | 68 | 1009.9 |
| 20260510015917 | 66 | 245 | 0.0 | 0.0 | 0.00 | 0.00 | 0.00 | 68 | 1009.8 |
| 20260510015413 | 66 | 258 | 0.0 | 0.0 | 0.00 | 0.00 | 0.00 | 68 | 1009.9 |
| 20260510014908 | 66 | 239 | 0.0 | 0.0 | 0.00 | 0.00 | 0.00 | 68 | 1009.8 |
| 20260510014406 | 66 | 257 | 0.0 | 0.0 | 0.00 | 0.00 | 0.00 | 68 | 1009.8 |
| 20260510013902 | 66 | 255 | 0.0 | 0.0 | 0.00 | 0.00 | 0.00 | 68 | 1009.6 |
| 20260510013357 | 67 | 250 | 0.9 | 0.9 | 0.00 | 0.00 | 0.00 | 67 | 1009.6 |
| 20260510012852 | 67 | 168 | 0.9 | 1.7 | 0.00 | 0.00 | 0.00 | 67 | 1009.5 |
| 20260510012347 | 67 | 293 | 0.9 | 0.9 | 0.00 | 0.00 | 0.00 | 67 | 1009.4 |
| 20260510011842 | 67 | 193 | 1.7 | 1.7 | 0.00 | 0.00 | 0.00 | 67 | 1009.3 |
| 20260510011338 | 67 | 271 | 0.0 | 0.0 | 0.00 | 0.00 | 0.00 | 67 | 1009.1 |
| 20260510010834 | 67 | 25 | 0.9 | 1.7 | 0.00 | 0.00 | 0.00 | 67 | 1009.1 |
| 20260510010332 | 68 | 47 | 1.7 | 2.6 | 0.00 | 0.00 | 0.00 | 66 | 1009.1 |
| 20260510005828 | 68 | 53 | 2.6 | 2.6 | 0.00 | 0.00 | 0.00 | 66 | 1008.9 |
| 20260510005324 | 68 | 321 | 1.7 | 1.7 | 0.00 | 0.00 | 0.00 | 65 | 1009.0 |
| 20260510004822 | 68 | 12 | 0.9 | 0.9 | 0.00 | 0.00 | 0.00 | 64 | 1009.1 |
| 20260510004320 | 68 | 268 | 0.9 | 0.9 | 0.00 | 0.00 | 0.00 | 63 | 1008.8 |
| 20260510003817 | 69 | 26 | 2.6 | 2.6 | 0.00 | 0.00 | 0.00 | 62 | 1008.9 |
| 20260510003314 | 69 | 345 | 0.9 | 0.9 | 0.00 | 0.00 | 0.00 | 60 | 1008.7 |
| 20260510002813 | 70 | 268 | 0.0 | 0.9 | 0.00 | 0.00 | 0.00 | 56 | 1008.8 |
| 20260510002310 | 71 | 256 | 0.0 | 0.0 | 0.00 | 0.00 | 0.00 | 55 | 1008.7 |
| 20260510001806 | 71 | 243 | 0.9 | 0.9 | 0.00 | 0.00 | 0.00 | 54 | 1008.7 |
| 20260510001305 | 72 | 240 | 0.0 | 0.0 | 0.00 | 0.00 | 0.00 | 53 | 1008.7 |
| 20260510000800 | 72 | 229 | 0.9 | 0.9 | 0.00 | 0.00 | 0.00 | 52 | 1008.5 |
| 20260510000258 | 72 | 242 | 0.0 | 0.9 | 0.00 | 0.00 | 0.00 | 51 | 1008.7 |
| 20260509235755 | 73 | 246 | 0.0 | 0.0 | 0.00 | 0.00 | 0.00 | 51 | 1008.6 |
| 20260509235251 | 73 | 235 | 0.9 | 0.9 | 0.00 | 0.00 | 0.00 | 51 | 1008.7 |
| 20260509234747 | 73 | 220 | 0.9 | 0.9 | 0.00 | 0.00 | 0.00 | 50 | 1008.5 |
| 20260509234244 | 73 | 245 | 0.9 | 0.9 | 0.00 | 0.00 | 0.00 | 50 | 1008.3 |
| 20260509233743 | 73 | 223 | 0.9 | 0.9 | 0.00 | 0.00 | 0.00 | 50 | 1008.5 |
| 20260509233240 | 73 | 249 | 0.0 | 0.0 | 0.00 | 0.00 | 0.00 | 50 | 1008.3 |
| 20260509232736 | 73 | 240 | 0.9 | 0.9 | 0.00 | 0.00 | 0.00 | 50 | 1008.2 |
| 20260509232233 | 73 | 234 | 0.9 | 0.9 | 0.00 | 0.00 | 0.00 | 50 | 1008.4 |
| 20260509231729 | 74 | 224 | 1.7 | 2.6 | 0.00 | 0.00 | 0.00 | 50 | 1008.3 |
| 20260509231226 | 73 | 244 | 0.9 | 0.9 | 0.00 | 0.00 | 0.00 | 50 | 1008.2 |
| 20260509230724 | 73 | 194 | 3.5 | 3.5 | 0.00 | 0.00 | 0.00 | 50 | 1008.2 |
| 20260509230221 | 73 | 145 | 2.6 | 2.6 | 0.00 | 0.00 | 0.00 | 50 | 1008.4 |
| 20260509225716 | 73 | 225 | 0.9 | 0.9 | 0.00 | 0.00 | 0.00 | 50 | 1008.4 |
| 20260509225212 | 73 | 224 | 0.9 | 0.9 | 0.00 | 0.00 | 0.00 | 50 | 1008.4 |
| 20260509224708 | 74 | 170 | 2.6 | 2.6 | 0.00 | 0.00 | 0.00 | 49 | 1008.3 |
| 20260509224205 | 74 | 247 | 0.9 | 0.9 | 0.00 | 0.00 | 0.00 | 50 | 1008.3 |
| 20260509223702 | 74 | 271 | 1.7 | 2.6 | 0.00 | 0.00 | 0.00 | 49 | 1008.2 |
| 20260509223159 | 74 | 243 | 0.9 | 1.7 | 0.00 | 0.00 | 0.00 | 49 | 1008.3 |
| 20260509222656 | 74 | 207 | 3.5 | 5.2 | 0.00 | 0.00 | 0.00 | 49 | 1008.3 |
| 20260509222152 | 74 | 179 | 3.5 | 3.5 | 0.00 | 0.00 | 0.00 | 49 | 1008.3 |
| 20260509221647 | 74 | 254 | 2.6 | 3.5 | 0.00 | 0.00 | 0.00 | 49 | 1008.3 |
| 20260509221143 | 74 | 201 | 2.6 | 2.6 | 0.00 | 0.00 | 0.00 | 49 | 1008.4 |
| 20260509220639 | 75 | 154 | 1.7 | 2.6 | 0.00 | 0.00 | 0.00 | 47 | 1008.3 |
| 20260509220136 | 76 | 179 | 2.6 | 2.6 | 0.00 | 0.00 | 0.00 | 46 | 1008.4 |
| 20260509215632 | 76 | 247 | 4.3 | 6.1 | 0.00 | 0.00 | 0.00 | 46 | 1008.5 |
| 20260509215129 | 75 | 255 | 0.9 | 1.7 | 0.00 | 0.00 | 0.00 | 46 | 1008.4 |
| 20260509214626 | 74 | 262 | 1.7 | 1.7 | 0.00 | 0.00 | 0.00 | 47 | 1008.5 |
| 20260509214123 | 75 | 252 | 3.5 | 5.2 | 0.00 | 0.00 | 0.00 | 47 | 1008.4 |
| 20260509213619 | 77 | 254 | 2.6 | 2.6 | 0.00 | 0.00 | 0.00 | 45 | 1008.4 |
| 20260509213115 | 76 | 225 | 2.6 | 2.6 | 0.00 | 0.00 | 0.00 | 45 | 1008.4 |
| 20260509212613 | 75 | 276 | 1.7 | 1.7 | 0.00 | 0.00 | 0.00 | 46 | 1008.3 |
| 20260509212110 | 76 | 179 | 3.5 | 5.2 | 0.00 | 0.00 | 0.00 | 46 | 1008.3 |
| 20260509211605 | 76 | 216 | 2.6 | 3.5 | 0.00 | 0.00 | 0.00 | 45 | 1008.5 |
| 20260509211102 | 76 | 135 | 2.6 | 3.5 | 0.00 | 0.00 | 0.00 | 46 | 1008.3 |
| 20260509210553 | 76 | 232 | 2.6 | 3.5 | 0.00 | 0.00 | 0.00 | 46 | 1008.3 |
| 20260509210050 | 76 | 112 | 2.6 | 5.2 | 0.00 | 0.00 | 0.00 | 46 | 1008.3 |
| 20260509205543 | 75 | 285 | 4.3 | 6.1 | 0.00 | 0.00 | 0.00 | 47 | 1008.1 |
| 20260509205039 | 74 | 303 | 1.7 | 2.6 | 0.00 | 0.00 | 0.00 | 48 | 1008.5 |
| 20260509204536 | 74 | 238 | 2.6 | 3.5 | 0.00 | 0.00 | 0.00 | 48 | 1008.1 |
| 20260509204032 | 74 | 231 | 2.6 | 2.6 | 0.00 | 0.00 | 0.00 | 49 | 1008.3 |
| 20260509203528 | 74 | 230 | 0.9 | 0.9 | 0.00 | 0.00 | 0.00 | 49 | 1008.1 |
| 20260509203027 | 74 | 233 | 1.7 | 1.7 | 0.00 | 0.00 | 0.00 | 49 | 1008.2 |
| 20260509202527 | 75 | 213 | 2.6 | 3.5 | 0.00 | 0.00 | 0.00 | 48 | 1008.1 |
| 20260509202022 | 76 | 195 | 3.5 | 5.2 | 0.00 | 0.00 | 0.00 | 47 | 1008.2 |
| 20260509201517 | 76 | 252 | 3.5 | 5.2 | 0.00 | 0.00 | 0.00 | 46 | 1008.4 |
| 20260509201015 | 76 | 309 | 1.7 | 3.5 | 0.00 | 0.00 | 0.00 | 47 | 1008.2 |
| 20260509200510 | 75 | 258 | 4.3 | 6.1 | 0.00 | 0.00 | 0.00 | 48 | 1008.6 |
| 20260509200007 | 75 | 256 | 4.3 | 6.1 | 0.00 | 0.00 | 0.00 | 48 | 1008.5 |
| 20260509195502 | 74 | 257 | 1.7 | 1.7 | 0.00 | 0.00 | 0.00 | 50 | 1008.5 |
| 20260509195001 | 74 | 352 | 0.9 | 1.7 | 0.00 | 0.00 | 0.00 | 49 | 1009.0 |
| 20260509194457 | 73 | 258 | 1.7 | 3.5 | 0.00 | 0.00 | 0.00 | 50 | 1008.9 |
| 20260509193955 | 73 | 249 | 6.1 | 7.0 | 0.00 | 0.00 | 0.00 | 50 | 1008.9 |
| 20260509193454 | 72 | 306 | 3.5 | 5.2 | 0.00 | 0.00 | 0.00 | 52 | 1009.2 |
| 20260509192950 | 71 | 270 | 5.2 | 7.8 | 0.00 | 0.00 | 0.00 | 52 | 1009.3 |
| 20260509192447 | 72 | 316 | 6.1 | 7.8 | 0.00 | 0.00 | 0.00 | 53 | 1009.4 |
| 20260509191942 | 71 | 224 | 5.2 | 6.1 | 0.00 | 0.00 | 0.00 | 55 | 1009.3 |
| 20260509191438 | 70 | 266 | 2.6 | 5.2 | 0.00 | 0.00 | 0.00 | 57 | 1009.3 |
| 20260509190934 | 70 | 265 | 1.7 | 1.7 | 0.00 | 0.00 | 0.00 | 59 | 1009.3 |
| 20260509190431 | 69 | 241 | 1.7 | 2.6 | 0.00 | 0.00 | 0.00 | 59 | 1009.2 |
| 20260509185929 | 69 | 281 | 4.3 | 6.1 | 0.00 | 0.00 | 0.00 | 60 | 1009.3 |
| 20260509185426 | 69 | 244 | 3.5 | 5.2 | 0.00 | 0.00 | 0.00 | 59 | 1009.3 |
| 20260509184922 | 69 | 241 | 2.6 | 2.6 | 0.00 | 0.00 | 0.00 | 60 | 1009.3 |
| 20260509184420 | 69 | 254 | 2.6 | 2.6 | 0.00 | 0.00 | 0.00 | 63 | 1009.6 |
| 20260509183916 | 69 | 229 | 0.9 | 1.7 | 0.00 | 0.00 | 0.00 | 64 | 1009.9 |
| 20260509183411 | 69 | 245 | 1.7 | 2.6 | 0.00 | 0.00 | 0.00 | 62 | 1009.7 |
| 20260509182909 | 68 | 197 | 0.9 | 0.9 | 0.00 | 0.00 | 0.00 | 62 | 1009.7 |
| 20260509182405 | 68 | 235 | 4.3 | 7.0 | 0.00 | 0.00 | 0.00 | 60 | 1009.8 |
| 20260509181903 | 68 | 186 | 1.7 | 1.7 | 0.00 | 0.00 | 0.00 | 60 | 1010.0 |
| 20260509181400 | 70 | 190 | 3.5 | 7.0 | 0.00 | 0.00 | 0.00 | 56 | 1009.8 |
| 20260509180857 | 70 | 209 | 0.9 | 2.6 | 0.00 | 0.00 | 0.00 | 52 | 1010.1 |
| 20260509180352 | 70 | 236 | 1.7 | 1.7 | 0.00 | 0.00 | 0.00 | 51 | 1009.9 |
| 20260509175849 | 70 | 172 | 3.5 | 5.2 | 0.00 | 0.00 | 0.00 | 51 | 1010.1 |
| 20260509175345 | 70 | 251 | 3.5 | 7.0 | 0.00 | 0.00 | 0.00 | 51 | 1010.1 |
| 20260509174841 | 71 | 221 | 1.7 | 3.5 | 0.00 | 0.00 | 0.00 | 51 | 1010.0 |
| 20260509174337 | 71 | 222 | 6.1 | 7.0 | 0.00 | 0.00 | 0.00 | 50 | 1010.0 |
| 20260509173833 | 71 | 87 | 5.2 | 7.8 | 0.00 | 0.00 | 0.00 | 49 | 1010.1 |
| 20260509173329 | 71 | 162 | 3.5 | 6.1 | 0.00 | 0.00 | 0.00 | 49 | 1010.2 |
| 20260509172825 | 71 | 260 | 2.6 | 2.6 | 0.00 | 0.00 | 0.00 | 49 | 1010.2 |
| 20260509172322 | 71 | 257 | 3.5 | 5.2 | 0.00 | 0.00 | 0.00 | 50 | 1010.3 |
| 20260509171819 | 71 | 256 | 1.7 | 2.6 | 0.00 | 0.00 | 0.00 | 50 | 1010.4 |
| 20260509171314 | 71 | 226 | 1.7 | 2.6 | 0.00 | 0.00 | 0.00 | 50 | 1010.3 |
| 20260509170811 | 71 | 253 | 1.7 | 1.7 | 0.00 | 0.00 | 0.00 | 50 | 1010.3 |
| 20260509170306 | 70 | 248 | 4.3 | 6.1 | 0.00 | 0.00 | 0.00 | 51 | 1010.6 |
| 20260509165806 | 70 | 246 | 5.2 | 7.0 | 0.00 | 0.00 | 0.00 | 51 | 1010.4 |
| 20260509165301 | 70 | 270 | 5.2 | 7.0 | 0.00 | 0.00 | 0.00 | 51 | 1010.6 |
| 20260509164757 | 70 | 215 | 3.5 | 6.1 | 0.00 | 0.00 | 0.00 | 50 | 1010.7 |
| 20260509164253 | 69 | 250 | 7.0 | 7.8 | 0.00 | 0.00 | 0.00 | 52 | 1010.5 |
| 20260509163750 | 69 | 233 | 2.6 | 2.6 | 0.00 | 0.00 | 0.00 | 52 | 1010.7 |
| 20260509163246 | 68 | 261 | 0.9 | 1.7 | 0.00 | 0.00 | 0.00 | 53 | 1010.7 |
| 20260509162746 | 69 | 268 | 0.9 | 1.7 | 0.00 | 0.00 | 0.00 | 53 | 1010.7 |
| 20260509162245 | 68 | 271 | 1.7 | 2.6 | 0.00 | 0.00 | 0.00 | 53 | 1010.7 |
| 20260509161741 | 68 | 234 | 2.6 | 3.5 | 0.00 | 0.00 | 0.00 | 53 | 1010.8 |
| 20260509161237 | 68 | 266 | 7.8 | 7.8 | 0.00 | 0.00 | 0.00 | 54 | 1010.8 |
| 20260509160732 | 68 | 253 | 2.6 | 3.5 | 0.00 | 0.00 | 0.00 | 54 | 1010.8 |
| 20260509160229 | 68 | 248 | 3.5 | 6.1 | 0.00 | 0.00 | 0.00 | 54 | 1010.6 |
| 20260509155724 | 68 | 292 | 2.6 | 5.2 | 0.00 | 0.00 | 0.00 | 54 | 1011.0 |
| 20260509155221 | 68 | 259 | 5.2 | 7.0 | 0.00 | 0.00 | 0.00 | 53 | 1011.0 |
| 20260509154717 | 68 | 288 | 1.7 | 1.7 | 0.00 | 0.00 | 0.00 | 53 | 1011.0 |
| 20260509154214 | 69 | 254 | 1.7 | 2.6 | 0.00 | 0.00 | 0.00 | 52 | 1011.1 |
| 20260509153712 | 69 | 313 | 5.2 | 7.8 | 0.00 | 0.00 | 0.00 | 51 | 1011.0 |
| 20260509153208 | 69 | 254 | 2.6 | 5.2 | 0.00 | 0.00 | 0.00 | 52 | 1011.1 |
| 20260509152704 | 69 | 220 | 2.6 | 3.5 | 0.00 | 0.00 | 0.00 | 52 | 1011.0 |
| 20260509152201 | 68 | 270 | 5.2 | 7.8 | 0.00 | 0.00 | 0.00 | 53 | 1010.7 |
| 20260509151657 | 68 | 262 | 3.5 | 6.1 | 0.00 | 0.00 | 0.00 | 54 | 1011.2 |
| 20260509151154 | 68 | 208 | 7.8 | 9.6 | 0.00 | 0.00 | 0.00 | 53 | 1011.3 |
| 20260509150652 | 67 | 247 | 3.5 | 3.5 | 0.00 | 0.00 | 0.00 | 54 | 1011.2 |
| 20260509150150 | 67 | 265 | 4.3 | 7.0 | 0.00 | 0.00 | 0.00 | 54 | 1011.1 |
| 20260509145646 | 66 | 263 | 1.7 | 3.5 | 0.00 | 0.00 | 0.00 | 55 | 1011.4 |
| 20260509145142 | 65 | 277 | 2.6 | 3.5 | 0.00 | 0.00 | 0.00 | 58 | 1011.6 |
| 20260509144638 | 64 | 262 | 2.6 | 3.5 | 0.00 | 0.00 | 0.00 | 58 | 1011.5 |
| 20260509144136 | 64 | 255 | 5.2 | 7.0 | 0.00 | 0.00 | 0.00 | 58 | 1011.6 |
| 20260509143633 | 64 | 261 | 4.3 | 5.2 | 0.00 | 0.00 | 0.00 | 58 | 1011.7 |
| 20260509143130 | 64 | 267 | 1.7 | 2.6 | 0.00 | 0.00 | 0.00 | 58 | 1011.9 |
| 20260509142626 | 63 | 242 | 3.5 | 3.5 | 0.00 | 0.00 | 0.00 | 59 | 1011.9 |
| 20260509142122 | 63 | 261 | 2.6 | 3.5 | 0.00 | 0.00 | 0.00 | 60 | 1011.8 |
| 20260509141618 | 63 | 299 | 1.7 | 1.7 | 0.00 | 0.00 | 0.00 | 60 | 1011.9 |
| 20260509141115 | 62 | 138 | 0.9 | 1.7 | 0.00 | 0.00 | 0.00 | 61 | 1011.8 |
| 20260509140612 | 62 | 266 | 0.9 | 1.7 | 0.00 | 0.00 | 0.00 | 61 | 1011.8 |
| 20260509140110 | 62 | 254 | 1.7 | 2.6 | 0.00 | 0.00 | 0.00 | 61 | 1011.7 |
| 20260509135607 | 62 | 260 | 3.5 | 5.2 | 0.00 | 0.00 | 0.00 | 60 | 1011.8 |
| 20260509135105 | 62 | 240 | 5.2 | 7.0 | 0.00 | 0.00 | 0.00 | 59 | 1011.8 |
| 20260509134601 | 62 | 250 | 0.0 | 0.9 | 0.00 | 0.00 | 0.00 | 61 | 1012.0 |
| 20260509134059 | 62 | 260 | 2.6 | 3.5 | 0.00 | 0.00 | 0.00 | 61 | 1011.8 |
| 20260509133555 | 62 | 235 | 1.7 | 2.6 | 0.00 | 0.00 | 0.00 | 60 | 1011.7 |
| 20260509133053 | 61 | 252 | 2.6 | 3.5 | 0.00 | 0.00 | 0.00 | 61 | 1011.8 |
| 20260509132551 | 61 | 232 | 3.5 | 3.5 | 0.00 | 0.00 | 0.00 | 62 | 1011.9 |
| 20260509132049 | 61 | 260 | 2.6 | 2.6 | 0.00 | 0.00 | 0.00 | 61 | 1012.0 |
| 20260509131545 | 61 | 237 | 1.7 | 1.7 | 0.00 | 0.00 | 0.00 | 61 | 1012.0 |
| 20260509131042 | 61 | 239 | 2.6 | 5.2 | 0.00 | 0.00 | 0.00 | 61 | 1012.0 |
| 20260509130537 | 61 | 269 | 7.0 | 8.7 | 0.00 | 0.00 | 0.00 | 61 | 1011.7 |
| 20260509130035 | 61 | 212 | 3.5 | 5.2 | 0.00 | 0.00 | 0.00 | 61 | 1011.9 |
| 20260509125531 | 61 | 174 | 7.0 | 9.6 | 0.00 | 0.00 | 0.00 | 61 | 1011.8 |
| 20260509125028 | 61 | 314 | 5.2 | 7.0 | 0.00 | 0.00 | 0.00 | 61 | 1011.8 |
| 20260509124525 | 61 | 218 | 6.1 | 7.0 | 0.00 | 0.00 | 0.00 | 60 | 1011.7 |
| 20260509124022 | 60 | 250 | 5.2 | 7.8 | 0.00 | 0.00 | 0.00 | 61 | 1011.7 |
| 20260509123520 | 60 | 222 | 4.3 | 5.2 | 0.00 | 0.00 | 0.00 | 61 | 1011.8 |
| 20260509123015 | 60 | 241 | 1.7 | 3.5 | 0.00 | 0.00 | 0.00 | 61 | 1011.4 |
| 20260509122512 | 60 | 240 | 0.9 | 1.7 | 0.00 | 0.00 | 0.00 | 61 | 1011.8 |
| 20260509122009 | 60 | 216 | 1.7 | 2.6 | 0.00 | 0.00 | 0.00 | 61 | 1011.7 |
| 20260509121506 | 60 | 220 | 2.6 | 2.6 | 0.00 | 0.00 | 0.00 | 60 | 1011.8 |
| 20260509121004 | 60 | 258 | 4.3 | 5.2 | 0.00 | 0.00 | 0.00 | 61 | 1011.9 |
| 20260509120501 | 60 | 152 | 3.5 | 6.1 | 0.00 | 0.00 | 0.00 | 60 | 1011.8 |
| 20260509115959 | 60 | 107 | 2.6 | 2.6 | 0.00 | 0.00 | 0.00 | 60 | 1011.7 |
| 20260509115456 | 60 | 93 | 2.6 | 2.6 | 0.00 | 0.00 | 0.00 | 60 | 1011.9 |
| 20260509114954 | 60 | 235 | 1.7 | 2.6 | 0.00 | 0.00 | 0.00 | 59 | 1011.8 |
| 20260509114452 | 60 | 77 | 5.2 | 7.0 | 0.00 | 0.00 | 0.00 | 58 | 1011.9 |
| 20260509113951 | 60 | 199 | 3.5 | 7.0 | 0.00 | 0.00 | 0.00 | 57 | 1011.8 |
| 20260509113448 | 60 | 152 | 3.5 | 6.1 | 0.00 | 0.00 | 0.00 | 57 | 1011.7 |
| 20260509112944 | 60 | 193 | 2.6 | 5.2 | 0.00 | 0.00 | 0.00 | 56 | 1011.6 |
| 20260509112442 | 60 | 128 | 3.5 | 3.5 | 0.00 | 0.00 | 0.00 | 56 | 1011.6 |
| 20260509111938 | 60 | 226 | 1.7 | 2.6 | 0.00 | 0.00 | 0.00 | 56 | 1011.8 |
| 20260509111436 | 60 | 176 | 1.7 | 2.6 | 0.00 | 0.00 | 0.00 | 56 | 1011.7 |
| 20260509110933 | 60 | 216 | 3.5 | 3.5 | 0.00 | 0.00 | 0.00 | 56 | 1011.6 |
| 20260509110429 | 60 | 155 | 5.2 | 7.8 | 0.00 | 0.00 | 0.00 | 56 | 1011.5 |
| 20260509105927 | 60 | 212 | 3.5 | 7.0 | 0.00 | 0.00 | 0.00 | 56 | 1011.7 |
| 20260509105426 | 60 | 242 | 0.9 | 1.7 | 0.00 | 0.00 | 0.00 | 55 | 1011.5 |
| 20260509104922 | 60 | 225 | 4.3 | 7.0 | 0.00 | 0.00 | 0.00 | 55 | 1011.7 |
| 20260509104419 | 61 | 158 | 3.5 | 3.5 | 0.00 | 0.00 | 0.00 | 55 | 1011.4 |
| 20260509103917 | 60 | 272 | 2.6 | 3.5 | 0.00 | 0.00 | 0.00 | 53 | 1011.5 |
| 20260509103413 | 60 | 227 | 4.3 | 6.1 | 0.00 | 0.00 | 0.00 | 52 | 1011.4 |
| 20260509102912 | 60 | 254 | 3.5 | 7.0 | 0.00 | 0.00 | 0.00 | 51 | 1011.2 |
| 20260509102409 | 60 | 234 | 1.7 | 1.7 | 0.00 | 0.00 | 0.00 | 51 | 1011.4 |
| 20260509101905 | 60 | 233 | 4.3 | 7.0 | 0.00 | 0.00 | 0.00 | 51 | 1011.2 |
| 20260509101401 | 60 | 227 | 1.7 | 1.7 | 0.00 | 0.00 | 0.00 | 51 | 1011.3 |
| 20260509100859 | 60 | 254 | 2.6 | 2.6 | 0.00 | 0.00 | 0.00 | 51 | 1011.1 |
| 20260509100356 | 60 | 229 | 1.7 | 5.2 | 0.00 | 0.00 | 0.00 | 51 | 1011.2 |
| 20260509095852 | 60 | 280 | 2.6 | 2.6 | 0.00 | 0.00 | 0.00 | 51 | 1011.2 |
| 20260509095350 | 60 | 191 | 3.5 | 3.5 | 0.00 | 0.00 | 0.00 | 51 | 1011.1 |
| 20260509094847 | 60 | 234 | 0.9 | 0.9 | 0.00 | 0.00 | 0.00 | 51 | 1011.2 |
| 20260509094343 | 61 | 251 | 0.0 | 0.9 | 0.00 | 0.00 | 0.00 | 50 | 1011.0 |
| 20260509093841 | 61 | 260 | 0.9 | 0.9 | 0.00 | 0.00 | 0.00 | 50 | 1011.1 |
| 20260509093338 | 61 | 216 | 1.7 | 2.6 | 0.00 | 0.00 | 0.00 | 50 | 1011.1 |
| 20260509092837 | 61 | 231 | 1.7 | 2.6 | 0.00 | 0.00 | 0.00 | 50 | 1011.2 |
| 20260509092334 | 61 | 251 | 1.7 | 1.7 | 0.00 | 0.00 | 0.00 | 50 | 1011.1 |
| 20260509091832 | 61 | 234 | 1.7 | 1.7 | 0.00 | 0.00 | 0.00 | 51 | 1011.3 |
| 20260509091329 | 61 | 248 | 0.9 | 0.9 | 0.00 | 0.00 | 0.00 | 51 | 1011.3 |
| 20260509090826 | 61 | 135 | 1.7 | 2.6 | 0.00 | 0.00 | 0.00 | 51 | 1011.4 |
| 20260509090323 | 61 | 225 | 1.7 | 2.6 | 0.00 | 0.00 | 0.00 | 51 | 1011.5 |
| 20260509085820 | 61 | 235 | 0.9 | 0.9 | 0.00 | 0.00 | 0.00 | 51 | 1011.4 |
| 20260509085318 | 61 | 187 | 1.7 | 1.7 | 0.00 | 0.00 | 0.00 | 51 | 1011.5 |
| 20260509084814 | 61 | 299 | 2.6 | 3.5 | 0.00 | 0.00 | 0.00 | 50 | 1011.4 |
| 20260509084311 | 60 | 278 | 2.6 | 3.5 | 0.00 | 0.00 | 0.00 | 52 | 1011.5 |
| 20260509083809 | 60 | 260 | 0.9 | 1.7 | 0.00 | 0.00 | 0.00 | 53 | 1011.5 |
| 20260509083305 | 60 | 233 | 2.6 | 2.6 | 0.00 | 0.00 | 0.00 | 53 | 1011.7 |
| 20260509082802 | 60 | 242 | 0.9 | 0.9 | 0.00 | 0.00 | 0.00 | 53 | 1011.6 |
| 20260509082258 | 60 | 253 | 1.7 | 2.6 | 0.00 | 0.00 | 0.00 | 53 | 1011.6 |
| 20260509081755 | 60 | 251 | 3.5 | 3.5 | 0.00 | 0.00 | 0.00 | 54 | 1011.7 |
| 20260509081253 | 60 | 255 | 0.0 | 0.9 | 0.00 | 0.00 | 0.00 | 54 | 1011.8 |
| 20260509080751 | 60 | 52 | 1.7 | 2.6 | 0.00 | 0.00 | 0.00 | 53 | 1011.7 |
| 20260509080248 | 60 | 260 | 1.7 | 2.6 | 0.00 | 0.00 | 0.00 | 53 | 1011.9 |
| 20260509075747 | 60 | 173 | 1.7 | 3.5 | 0.00 | 0.00 | 0.00 | 53 | 1011.8 |
| 20260509075244 | 60 | 218 | 1.7 | 2.6 | 0.00 | 0.00 | 0.00 | 52 | 1012.0 |
| 20260509074740 | 60 | 255 | 2.6 | 3.5 | 0.00 | 0.00 | 0.00 | 52 | 1012.0 |
| 20260509074238 | 60 | 240 | 3.5 | 6.1 | 0.00 | 0.00 | 0.00 | 52 | 1012.1 |
| 20260509073734 | 60 | 184 | 1.7 | 2.6 | 0.00 | 0.00 | 0.00 | 52 | 1012.0 |
| 20260509073231 | 60 | 161 | 2.6 | 2.6 | 0.00 | 0.00 | 0.00 | 53 | 1012.4 |